Date String (YYYY-MM-DD hh:mm:ss) UTC,Instrument flags,absolute air pressure of the measurement (hPa),sample flow rate (lpm),inlet stack bypass flow (lpm),air temperature of the measurement (°C),ambient temperature measured by the external sensor (°C),aerosol sample conditioner tube jacket temperature (°C),OPC LED temperature (°C),internal box temperature (°C),relative humidity of the measurement (%),span deviation,mass concentration of particles derived from Lorenz-Mie calculation of OPC scattering (μg/m³),mass concentration of particles derived from Lorenz-Mie calculation of OPC scattering (μg/m³),mass concentration of particles derived from Lorenz-Mie calculation of OPC scattering (μg/m³)
DateTimeUTC,F1_M11,P_M11,Q1_M11,Q2_M11,T1_M11,T2_M11,T3_M11,T4_M11,T5_M11,U1_M11,ZSPAN_M11,X2_M11,X0_M11,X1_M11
2024-02-13 23:00:00,SystemResetWarning,0824.8,5.01,000.00,024.1,023.6,000.0,032.5,026.0,14.0,0000.0,0005.89,0010.34,0005.21
2024-02-13 23:01:00,SystemResetWarning,0824.8,5.00,000.00,024.1,023.6,000.0,032.5,026.0,14.1,0000.0,0005.92,0010.11,0005.20
2024-02-13 23:02:00,SystemResetWarning,0824.8,5.01,000.00,024.1,023.6,000.0,032.5,026.0,14.0,0000.0,0005.89,0010.16,0005.19
2024-02-13 23:03:00,SystemResetWarning,0824.9,4.99,000.00,024.1,023.6,000.0,032.5,026.0,14.0,0000.0,0005.92,0010.32,0005.22
2024-02-13 23:04:00,SystemResetWarning,0824.9,4.99,000.00,024.1,023.6,000.0,032.5,026.0,14.2,0000.0,0005.92,0010.59,0005.26
2024-02-13 23:05:00,SystemResetWarning,0824.9,5.00,000.00,024.2,023.6,000.0,032.5,026.0,14.4,0000.0,0005.97,0011.01,0005.30
2024-02-13 23:06:00,SystemResetWarning,0824.9,5.00,000.00,024.2,023.6,000.0,032.5,026.0,14.5,0000.0,0006.04,0011.68,0005.34
2024-02-13 23:07:00,SystemResetWarning,0824.9,5.00,000.00,024.2,023.6,000.0,032.5,026.0,14.6,0000.0,0006.06,0012.10,0005.36
2024-02-13 23:08:00,SystemResetWarning,0824.9,5.00,000.00,024.2,023.6,000.0,032.5,026.0,14.5,0000.0,0006.08,0012.15,0005.37
2024-02-13 23:09:00,SystemResetWarning,0824.9,4.99,000.00,024.2,023.7,000.0,032.6,026.0,14.5,0000.0,0006.15,0012.10,0005.38
2024-02-13 23:10:00,SystemResetWarning,0824.8,5.00,000.00,024.2,023.7,000.0,032.6,026.1,14.5,0000.0,0006.15,0012.04,0005.37
2024-02-13 23:11:00,SystemResetWarning,0824.9,5.00,000.00,024.2,023.7,000.0,032.6,026.1,14.3,0000.0,0006.14,0011.92,0005.36
2024-02-13 23:12:00,SystemResetWarning,0824.9,4.99,000.00,024.2,023.7,000.0,032.6,026.1,14.3,0000.0,0006.11,0011.92,0005.36
2024-02-13 23:13:00,SystemResetWarning,0824.9,5.00,000.00,024.2,023.7,000.0,032.6,026.1,14.4,0000.0,0006.13,0012.40,0005.36
2024-02-13 23:14:00,SystemResetWarning,0824.9,5.00,000.00,024.2,023.7,000.0,032.6,026.1,14.4,0000.0,0006.12,0012.35,0005.34
2024-02-13 23:15:00,SystemResetWarning,0824.9,5.00,000.00,024.2,023.7,000.0,032.6,026.1,14.4,0000.0,0006.12,0012.03,0005.34
2024-02-13 23:16:00,SystemResetWarning,0824.9,4.99,000.00,024.2,023.7,000.0,032.6,026.1,14.2,0000.0,0006.10,0011.64,0005.34
2024-02-13 23:17:00,SystemResetWarning,0824.9,5.00,000.00,024.2,023.7,000.0,032.6,026.0,14.1,0000.0,0006.06,0011.00,0005.34
2024-02-13 23:18:00,SystemResetWarning,0824.9,5.01,000.00,024.2,023.6,000.0,032.6,026.0,14.3,0000.0,0006.04,0010.49,0005.33
2024-02-13 23:19:00,SystemResetWarning,0824.9,5.01,000.00,024.2,023.7,000.0,032.6,026.1,14.3,0000.0,0006.01,0010.40,0005.32
2024-02-13 23:20:00,SystemResetWarning,0824.9,5.00,000.00,024.2,023.7,000.0,032.6,026.1,14.2,0000.0,0005.97,0010.44,0005.31
2024-02-13 23:21:00,SystemResetWarning,0824.9,4.99,000.00,024.2,023.7,000.0,032.6,026.1,14.2,0000.0,0005.96,0010.42,0005.30
2024-02-13 23:22:00,SystemResetWarning,0824.9,4.99,000.00,024.2,023.6,000.0,032.6,026.1,14.0,0000.0,0005.97,0010.47,0005.30
2024-02-13 23:23:00,SystemResetWarning,0824.9,4.99,000.00,024.2,023.6,000.0,032.6,026.1,13.9,0000.0,0005.95,0010.42,0005.31
2024-02-13 23:24:00,SystemResetWarning,0824.9,5.01,000.00,024.2,023.6,000.0,032.6,026.1,14.0,0000.0,0005.90,0009.85,0005.30
2024-02-13 23:25:00,SystemResetWarning,0824.9,5.01,000.00,024.2,023.6,000.0,032.6,026.1,14.2,0000.0,0005.89,0010.34,0005.29
2024-02-13 23:26:00,SystemResetWarning,0824.9,5.00,000.00,024.2,023.6,000.0,032.6,026.1,14.2,0000.0,0005.87,0010.40,0005.28
2024-02-13 23:27:00,SystemResetWarning,0824.9,4.99,000.00,024.2,023.6,000.0,032.6,026.1,14.4,0000.0,0005.89,0011.28,0005.28
2024-02-13 23:28:00,SystemResetWarning,0824.9,5.00,000.00,024.2,023.6,000.0,032.7,026.1,14.5,0000.0,0005.93,0011.52,0005.29
2024-02-13 23:29:00,SystemResetWarning,0824.9,5.01,000.00,024.2,023.6,000.0,032.6,026.0,14.5,0000.0,0005.93,0011.70,0005.30
2024-02-13 23:30:00,SystemResetWarning,0824.9,5.01,000.00,024.2,023.6,000.0,032.6,026.0,14.5,0000.0,0005.94,0011.75,0005.29
2024-02-13 23:31:00,SystemResetWarning,0824.9,5.00,000.00,024.2,023.6,000.0,032.6,026.0,14.4,0000.0,0005.90,0011.78,0005.28
2024-02-13 23:32:00,SystemResetWarning,0824.9,5.00,000.00,024.2,023.6,000.0,032.7,026.0,14.2,0000.0,0005.86,0011.92,0005.28
2024-02-13 23:33:00,SystemResetWarning,0824.9,5.00,000.00,024.2,023.6,000.0,032.7,026.0,14.1,0000.0,0005.82,0011.84,0005.28
2024-02-13 23:34:00,SystemResetWarning,0824.9,5.00,000.00,024.2,023.6,000.0,032.7,026.0,14.2,0000.0,0005.81,0012.37,0005.28
2024-02-13 23:35:00,SystemResetWarning,0824.9,4.99,000.00,024.2,023.6,000.0,032.7,026.0,14.2,0000.0,0005.83,0012.66,0005.28
2024-02-13 23:36:00,SystemResetWarning,0824.9,5.00,000.00,024.2,023.6,000.0,032.7,026.0,14.2,0000.0,0005.85,0012.15,0005.29
2024-02-13 23:37:00,SystemResetWarning,0824.9,4.99,000.00,024.2,023.6,000.0,032.7,026.0,14.2,0000.0,0005.84,0011.90,0005.29
2024-02-13 23:38:00,SystemResetWarning,0824.9,5.01,000.00,024.2,023.6,000.0,032.6,026.0,14.2,0000.0,0005.85,0011.11,0005.28
2024-02-13 23:39:00,SystemResetWarning,0824.9,5.01,000.00,024.2,023.6,000.0,032.7,026.0,14.2,0000.0,0005.83,0010.89,0005.25
2024-02-13 23:40:00,SystemResetWarning,0824.9,5.00,000.00,024.2,023.6,000.0,032.7,026.0,14.1,0000.0,0005.83,0011.32,0005.24
2024-02-13 23:41:00,SystemResetWarning,0824.9,5.00,000.00,024.2,023.6,000.0,032.7,026.0,14.2,0000.0,0005.84,0011.44,0005.23
2024-02-13 23:42:00,SystemResetWarning,0825.0,4.99,000.00,024.2,023.6,000.0,032.7,026.0,14.3,0000.0,0005.86,0011.69,0005.23
2024-02-13 23:43:00,SystemResetWarning,0825.1,4.99,000.00,024.2,023.6,000.0,032.7,026.0,14.3,0000.0,0005.89,0012.32,0005.22
2024-02-13 23:44:00,SystemResetWarning,0825.1,5.01,000.00,024.2,023.6,000.0,032.7,026.0,14.3,0000.0,0005.88,0012.41,0005.22
2024-02-13 23:45:00,SystemResetWarning,0825.1,5.01,000.00,024.2,023.6,000.0,032.6,026.0,14.3,0000.0,0005.86,0011.79,0005.21
2024-02-13 23:46:00,SystemResetWarning,0825.1,5.00,000.00,024.2,023.6,000.0,032.6,026.0,14.3,0000.0,0005.87,0012.32,0005.21
2024-02-13 23:47:00,SystemResetWarning,0825.1,5.00,000.00,024.2,023.6,000.0,032.6,026.0,14.3,0000.0,0005.88,0012.29,0005.21
2024-02-13 23:48:00,SystemResetWarning,0825.2,4.99,000.00,024.2,023.6,000.0,032.6,026.0,14.3,0000.0,0005.89,0012.32,0005.22
2024-02-13 23:49:00,SystemResetWarning,0825.1,5.00,000.00,024.2,023.6,000.0,032.6,026.0,14.3,0000.0,0005.94,0012.55,0005.22
2024-02-13 23:50:00,SystemResetWarning,0825.2,5.00,000.00,024.2,023.6,000.0,032.6,026.0,14.3,0000.0,0005.95,0012.66,0005.23
2024-02-13 23:51:00,SystemResetWarning,0825.2,5.01,000.00,024.2,023.6,000.0,032.6,026.0,14.3,0000.0,0005.97,0012.46,0005.24
2024-02-13 23:52:00,SystemResetWarning,0825.2,5.00,000.00,024.2,023.6,000.0,032.6,026.0,14.3,0000.0,0005.97,0012.46,0005.26
2024-02-13 23:53:00,SystemResetWarning,0825.2,5.00,000.00,024.2,023.6,000.0,032.6,026.0,14.4,0000.0,0005.98,0012.78,0005.29
2024-02-13 23:54:00,SystemResetWarning,0825.2,4.99,000.00,024.2,023.6,000.0,032.6,026.1,14.5,0000.0,0005.98,0012.28,0005.31
2024-02-13 23:55:00,SystemResetWarning,0825.1,5.00,000.00,024.2,023.7,000.0,032.7,026.1,14.6,0000.0,0006.04,0012.73,0005.32
2024-02-13 23:56:00,SystemResetWarning,0825.1,5.01,000.00,024.2,023.7,000.0,032.7,026.1,14.6,0000.0,0006.10,0013.16,0005.34
2024-02-13 23:57:00,SystemResetWarning,0825.1,5.00,000.00,024.2,023.7,000.0,032.7,026.1,14.4,0000.0,0006.14,0013.32,0005.36
2024-02-13 23:58:00,SystemResetWarning,0825.1,4.99,000.00,024.3,023.7,000.0,032.7,026.1,14.1,0000.0,0006.13,0013.42,0005.37
2024-02-13 23:59:00,SystemResetWarning,0825.1,5.00,000.00,024.3,023.7,000.0,032.7,026.2,14.1,0000.0,0006.12,0013.45,0005.37
